Location: Cran-Gévrier
(45.9039°N, 6.1012°E)
Time: 13:11:02
(UTC+00:00)

Cosmos 2237 Rocket - Visible Passes

Search period start: 25 September 2023 00:00
Search period end: 05 October 2023 00:00
Orbit: 833 x 851 km, 71.0° (Epoch: 24 September)

Date Brightness Start Highest point End Pass type
(mag) Time Alt. Az. Time Alt. Az. Time Alt. Az.
25 Sep 4.1 04:35:53 10° N 04:40:56 31° NE 04:45:57 10° ESE visible
25 Sep 4.2 19:39:20 14° NE 19:39:20 14° NE 19:40:04 10° NE visible
25 Sep 3.9 21:21:05 28° N 21:21:05 28° N 21:24:14 10° NNE visible
26 Sep 4.2 04:20:56 10° N 04:25:56 30° NE 04:30:53 10° ESE visible
26 Sep 3.7 19:23:10 20° NE 19:23:10 20° NE 19:25:03 10° NE visible
26 Sep 3.4 21:04:48 38° NNW 21:04:48 38° NNW 21:09:17 10° NNE visible
26 Sep 5.1 22:49:06 10° NW 22:49:40 10° NNW 22:50:14 10° NNW visible
27 Sep 4.2 04:05:59 10° N 04:10:55 29° NE 04:15:48 10° ESE visible
27 Sep 2.8 18:59:57 10° SSE 19:04:57 33° ESE 19:10:01 10° NE visible
27 Sep 3.3 20:43:30 10° SW 20:48:54 42° NW 20:54:19 10° NNE visible
27 Sep 5.1 22:33:30 10° NW 22:34:37 10° NNW 22:35:43 10° NNW visible
28 Sep 4.3 03:51:02 10° N 03:55:54 28° NE 04:00:44 10° ESE visible
28 Sep 2.8 18:45:03 10° SSE 18:50:01 32° ESE 18:55:00 10° NE visible
28 Sep 3.2 20:28:28 10° SW 20:33:54 44° NW 20:39:21 10° NNE visible
28 Sep 5.1 22:18:06 10° NW 22:19:34 11° NNW 22:21:01 10° NNW visible
29 Sep 4.3 03:36:05 10° N 03:40:53 27° NE 03:45:39 10° ESE visible
29 Sep 2.9 18:30:10 10° SSE 18:35:03 30° ESE 18:39:58 10° NE visible
29 Sep 3.1 20:13:26 10° SW 20:18:54 46° WNW 20:24:23 10° NNE visible
29 Sep 5.1 22:02:46 10° NW 22:04:30 11° NW 22:06:15 10° NNW visible
30 Sep 4.3 03:21:08 10° N 03:25:52 26° NE 03:30:34 10° ESE visible
30 Sep 3.0 18:15:18 10° SSE 18:20:06 29° ESE 18:24:56 10° NE visible
30 Sep 3.1 19:58:24 10° SW 20:03:54 48° WNW 20:09:26 10° NNE visible
30 Sep 5.1 21:47:29 10° NW 21:49:27 12° NW 21:51:26 10° NNW visible
01 Oct 4.4 03:06:11 10° N 03:10:51 25° NE 03:15:27 10° ESE visible
01 Oct 2.2 04:49:44 10° NNW 04:55:23 64° WSW 05:00:57 10° SSE visible
01 Oct 3.0 18:00:26 10° SSE 18:05:09 28° ESE 18:09:53 10° NE visible
01 Oct 3.0 19:43:22 10° SW 19:48:54 50° WNW 19:54:28 10° NNE visible
01 Oct 5.1 21:32:13 10° WNW 21:34:25 12° NW 21:36:37 10° NNW visible
02 Oct 4.4 02:51:15 10° N 02:55:50 24° NE 03:00:22 10° E visible
02 Oct 2.2 04:34:45 10° NNW 04:40:24 67° WSW 04:46:00 10° SSE visible
02 Oct 3.1 17:45:34 10° SSE 17:50:11 26° ESE 17:54:51 10° NE visible
02 Oct 3.0 19:28:21 10° SW 19:33:54 53° WNW 19:39:29 10° NNE visible
02 Oct 5.1 21:16:59 10° WNW 21:19:23 13° NW 21:21:46 10° N visible
03 Oct 4.4 02:36:18 10° N 02:40:48 23° NE 02:45:16 10° E visible
03 Oct 2.1 04:19:45 10° NNW 04:25:26 70° WSW 04:31:02 10° SSE visible
03 Oct 2.9 19:13:20 10° SW 19:18:54 55° WNW 19:24:31 10° NNE visible
03 Oct 5.1 21:01:45 10° WNW 21:04:19 13° NW 21:06:54 10° N visible
04 Oct 4.4 02:21:22 10° N 02:25:47 22° NE 02:30:09 10° E visible
04 Oct 2.1 04:04:46 10° NNW 04:10:27 74° WSW 04:16:05 10° SSE visible
04 Oct 2.8 18:58:19 10° SW 19:03:55 58° WNW 19:09:34 10° NNE visible
04 Oct 5.1 20:46:33 10° WNW 20:49:17 13° NW 20:52:01 10° N visible
